Location: Newark
(43.0000°N, 1.6781°W)
Time: 01:05:19
(UTC+00:00)

Vanguard 1 Rocket - Pass Details

Date: 25 April 2021
Orbit: 652 x 4224 km, 34.3° (Epoch: 06 May)

Event Time Altitude Azimuth Distance (km) Brightness Sun altitude
Rises 13:52:26 0° 255° (WSW) 4,221 11.3 52.4°
Reaches altitude 10° 13:56:04 10° 247° (WSW) 2,817 10.7 51.9°
Maximum altitude 14:01:31 33° 184° (S) 1,272 9.2 51.2°
Drops below altitude 10° 14:05:34 10° 120° (ESE) 2,081 9.2 50.6°
Sets 14:07:52 0° 109° (ESE) 2,958 9.8 50.3°
